Location: Tel Aviv
(32.0670°N, 34.7670°E)
Time: 01:59:18
(UTC+03:00)

Vanguard 2 - Pass Details

Date: 25 January 2022
Orbit: 552 x 2935 km, 32.9° (Epoch: 26 May)

Event Time Altitude Azimuth Distance (km) Brightness Sun altitude
Rises 19:02:27 0° 235° (SW) 3,656 12.0 -24.2°
Reaches altitude 10° 19:04:39 10° 232° (SW) 2,934 11.3 -24.7°
Maximum altitude 19:11:55 61° 153° (SSE) 1,704 9.0 -26.2°
Enters shadow 19:15:22 44° 98° (E) 2,285 9.4 -26.9°
Drops below altitude 10° 19:24:16 10° 77° (ENE) 4,823 - -28.8°
Sets 19:28:55 0° 75° (ENE) 6,160 - -29.8°
